Location: Newark
(55.7167°N, 12.5667°E)
Time: 21:18:37
(UTC+00:00)

N. Korean satellite - Pass Details

Date: 18 December 2019
Orbit: 454 x 508 km, 97.2° (Epoch: 19 January)

Event Time Altitude Azimuth Distance (km) Brightness Sun altitude
Rises 16:56:46 0° 199° (SSW) 2,588 10.8 -17.9°
Reaches altitude 10° 16:59:13 10° 216° (SW) 1,702 10.0 -18.2°
Maximum altitude 17:02:07 22° 268° (W) 1,136 9.3 -18.6°
Drops below altitude 10° 17:04:59 10° 320° (NW) 1,692 9.6 -19.0°
Sets 17:07:25 0° 336° (NNW) 2,568 10.4 -19.3°
